Notices

What's New in latest Release from April 7th, 2021:

- Updated Glossary, including Speed of Maximum Gust, and Total Hourly Precipitation

- Updated national and regional climate services offices contacts and prices information

- Addition of station inventory lists for 1981-2010, 1971-2000, and 1961-1990 Normals.

If you haven't already, please take our survey and provide feedback about our website: https://eccc.sondage-survey.ca/f/LanguageSelection.aspx?s=442ca660-fcf1-47c0-95a9-59707d6fd709

Hourly Data Report for August 12, 2019

TORONTO CITY
ONTARIO
Current Station Operator: ECCC - MSC

43°40'00.000" N
79°24'00.000" W
112.50 m
6158355
71508
XTO

Download Data

Hourly Data (August 2019)
Hourly Data Report for August 12, 2019
TIME
LST
Temp Definition
°C
Dew Point Definition
°C
Rel Hum Definition
%
Precip. Amount Definition
mm

Wind Dir Definition
10's deg

Wind Spd Definition
km/h
Visibility Definition
km
Stn Press Definition
kPa
Hmdx Definition


Wind Chill Definition


Weather Definition


00:00 19.8 15.1 74 0.0       100.07     LegendNANA
01:00 20.1 15.4 75 0.0       100.06     LegendNANA
02:00 20.7 15.4 72 0.0       100.06 25   LegendNANA
03:00 20.5 15.4 73 0.0       100.03 25   LegendNANA
04:00 20.2 15.6 75 0.0       99.99 25   LegendNANA
05:00 20.3 15.7 75 0.0       100.00 25   LegendNANA
06:00 20.7 16.2 76 0.0       100.00 25   LegendNANA
07:00 20.0 15.7 76 0.0       100.03     LegendNANA
08:00 20.4 16.4 78 0.0       100.03 25   LegendNANA
09:00 23.0 15.6 63 0.0       99.97 27   LegendNANA
10:00 21.7 15.2 67 0.0       100.00 26   LegendNANA
11:00 24.5 17.0 63 0.0       99.92 30   LegendNANA
12:00 25.9 14.7 50 0.0       99.86 30   LegendNANA
13:00 25.9 15.1 51 0.0       99.81 30   LegendNANA
14:00 26.5 16.9 55 0.0       99.73 32   LegendNANA
15:00 26.8 17.1 55 0.0       99.65 32   LegendNANA
16:00 26.1 17.0 57 0.0       99.62 31   LegendNANA
17:00 26.6 16.7 55 0.0       99.55 32   LegendNANA
18:00 25.8 15.6 53 0.0       99.53 30   LegendNANA
19:00 23.5 18.5 74 0.0       99.59 30   LegendNANA
20:00 22.8 19.4 82 0.2       99.60 30   LegendNANA
21:00 22.0 19.6 86 0.0       99.62 29   LegendNANA
22:00 21.7 18.6 83 0.0       99.60 28   LegendNANA
23:00 21.7 18.9 84 0.0       99.60 28   LegendNANA

Notes on Data Quality.

Legend

  • E = Estimated
  • M = Missing
  • NA = Not Available*
  • [empty] = Indicates an unobserved value
Date modified: